COSMOS 713

Satellite information

Favourite Embed

Satellite Type and Status

PAYLOADIN ORBIT

Key statistics

Satellite COSMOS 713 at a glance.

Uptime

18552

Days in orbit

Revolutions

≈ 12.6

Per day

Orbit

LEO

Low Earth Orbit

Inclination

74.0

Latest

Satellite identification and parameters

Extended collection of information and parameters for COSMOS 713.

Object identification

Identified? True

Debris? False

Object name: COSMOS 713

International designator: 1975-016C

Object number (NORAD): 7680

Object ID (CCSDS): 7680

Country: COMMONWEALTH OF INDEPENDENT STATES (CIS)

Current information (Y/N): Y

RCS size: MEDIUM

Orbital parameters

Period: 114.68 minutes

Inclination: 74.004 deg

SMA: 7818.997 km

Apoapsis: 1485.938 km

Periapsis: 1395.786 km

RAAN: 270.1751 deg

Eccentricy: 0.00576494

Argument of periapsis: 69.3145 deg

Mean anomaly: 98.3404 deg

Mean motion: 12.5567187 rev/day

Mean motion (dot): 0.00000003 rev/day2

B* drag term: 0.00011597977 1/REarth

Two-line elements (TLE)

Creation date: Dec. 12, 2025, 10:14 a.m.

Reference frame: TEME

Reference center: EARTH

Epoch: Dec. 12, 2025, 5:34 a.m. UTC

TLE line 0: 0 COSMOS 713

TLE line 1: 1 07680U 75016C 25346.23204299 .00000003 00000-0 11598-3 0 9991

TLE line 2: 2 07680 74.0040 270.1751 0057649 69.3145 98.3404 12.55671870327934

Live tracking on map

Real-time ground track for satellite COSMOS 713.

In-orbit conjunctions

There are no conjunctions computed for COSMOS 713, at the moment. Check back to stay up to date, as we update our databases every day.

Go to all conjunctions

Associated space launch

Military communications satellites

COSMOS 713 was lifted into orbit during the mission ‘Kosmos-3M | Strela-1M 81-88’, on board a Kosmos-3M space rocket.

The launch took place on Feb. 28, 1975, 2:01 p.m. from 132/2.

For more information about the launch, click the button.

Launch to space Kosmos-3M | Strela-1M 81-88
Kosmos-3M | Strela-1M 81-88

Agency: N/A

Status: Launch Successful

Launch date: Feb. 28, 1975, 2:01 p.m. UTC

Rocket: Kosmos-3M

Launch pad: 132/2

Location: Plesetsk Cosmodrome, Russian Federation

...

Latest news about this satellite

There are no fresh news available about this satellite. Check back as we update our databases every day.


Newsletter sign-up

Weekly statistics, charts and insights to help you stay on top of the space industry.